sat.trackr.live / text

‹ back to catalog

KUIPER-00268

NORAD 67790 · 2026-030AC

PAYLOAD ACTIVE UNKNOWN

§ Identity

Operator
Country
US
Launch date
2026-02-12
Launch site
FRGUI
Launch vehicle
Mass (kg)
RCS (m²)

External: N2YO · Heavens-Above · Gunter

§ Orbital elements

Epoch: 2026-05-25T04:00:03.998880Z

Period
96.30 min
Inclination
51.8979°
Eccentricity
0.0003095
Mean motion
14.95258728 rev/d
Perigee alt
579.4 km
Apogee alt
583.7 km
Semi-major
6,959.7 km
B*
1.9569e-3
RAAN
212.8334°
Arg perigee
3.5694°
Mean anomaly
233.4302°
Rev number
455

§ Raw data

KUIPER-002681 67790U 26030AC  26145.16671295  .00021582  00000+0  19569-2 0  99942 67790  51.8979 212.8334 0003095   3.5694 233.4302 14.95258728  4559

JSON: /api/v1/satellites/67790 · /tle

For live sub-satellite position, see the globe view (requires WebGL).

§ Visibility from observer

Set your observer location to see the next 7 days of passes ≥ 10°. The values pass through the URL so the page stays shareable.

No JS? Fill the form by hand. The geolocation button needs JavaScript.